Location: Governador Valadares
(18.8500°S, 41.9330°W)
Time: 01:38:13
(UTC-03:00)

Tiangong - Visible Passes

Search period start: 24 June 2024 00:00
Search period end: 04 July 2024 00:00
Orbit: 377 x 384 km, 41.5° (Epoch: 23 June)

Date Brightness Start Highest point End Pass type
(mag) Time Alt. Az. Time Alt. Az. Time Alt. Az.
25 Jun 0.2 05:09:28 13° S 05:10:54 17° SSE 05:13:03 10° ESE visible
26 Jun -2.2 05:43:39 11° SW 05:46:36 88° NW 05:49:44 10° NE visible
27 Jun -0.7 04:45:42 32° SE 04:45:42 32° SE 04:48:18 10° ENE visible
28 Jun -1.2 05:19:52 27° W 05:20:50 33° NW 05:23:42 10° NNE visible
28 Jun 0.0 18:31:46 10° N 18:33:23 15° NE 18:33:23 15° NE visible
29 Jun 0.8 04:21:51 17° NE 04:21:51 17° NE 04:22:43 10° NE visible
29 Jun -0.3 19:05:43 10° NW 19:07:30 31° NW 19:07:30 31° NW visible
30 Jun 0.4 04:55:56 13° NNW 04:55:56 13° NNW 04:56:37 10° N visible
30 Jun -1.2 18:04:37 10° NNW 18:07:30 33° NE 18:09:22 18° E visible
01 Jul -0.9 18:39:44 10° WNW 18:42:39 34° SW 18:43:16 30° S visible
03 Jul 0.2 18:14:02 10° WSW 18:16:14 17° SSW 18:18:26 10° S visible
